Вернуться в каталог

COSMOS 2251 DEB

АктивенLEO
NORAD 36048·DEBRIS·🇷🇺 Russia

Запущен Jun 16, 1993 с Plesetsk Cosmodrome

Loading…

Ближайшие Пролёты (ближайшие 24 часа)

TLE

СвежийSource: Space-Track

Эпоха: Sep 14, 2026, 16:59 UTC

1 36048U 93036AXK 26257.70829416  .00000380  00000-0  13328-3 0  9992
2 36048  74.0569 151.6064 0025867 138.3723 253.2689 14.38203988894699

Отслеживайте COSMOS 2251 DEB в реальном времени с AllMySat

Download on the App Store